Location: Champs
(48.8539°N, 2.6040°E)
Time: 05:38:35
(UTC+00:00)

CZ-2C R/B - Pass Details

Date: 26 October 2021
Orbit: 500 x 564 km, 97.7° (Epoch: 04 December)

Event Time Altitude Azimuth Distance (km) Brightness Sun altitude
Rises 03:54:57 0° 15° (NNE) 2,617 6.6 -25.5°
Reaches altitude 10° 03:57:03 10° 18° (NNE) 1,723 5.7 -25.2°
Enters shadow 03:59:55 48° 41° (NE) 662 3.4 -24.7°
